VOE1FQ LFRS-GMMX

Flight info

Callsign VOE1FQ
Flight time 2h 39m
Altitude 35000
Route ERIGA DCT FUJTI DCT PEPET DCT BAKUP DCT BATAX DCT PINOX DCT TOFEF DCT ALAGU DCT AMSEL UR722 MABAP
Aircraft A320/M-SDE3FGHIRWY/LB1

Departure

Time 2026-04-28 10:59
Airport Nantes Atlantique Airport (LFRS)

Arrival

Time 2026-04-28 13:38
Airport Marrakesh Menara Airport (GMMX)
Time Latitude Longitude Altitude Speed Heading
2026-04-28 10:15 47.15683 -1.60216 117 ft 0 kts 35°
2026-04-28 10:49 47.15680 -1.60219 90 ft 3 kts 35°
2026-04-28 10:49 47.15664 -1.60236 91 ft 3 kts 37°
2026-04-28 10:49 47.15648 -1.60254 90 ft 3 kts 36°
2026-04-28 10:49 47.15633 -1.60269 90 ft 3 kts 40°
2026-04-28 10:50 47.15624 -1.60286 91 ft 3 kts 105°
2026-04-28 10:50 47.15633 -1.60309 91 ft 3 kts 138°
2026-04-28 10:50 47.15641 -1.60319 90 ft 0 kts 139°
2026-04-28 10:53 47.15635 -1.60311 93 ft 6 kts 139°
2026-04-28 10:53 47.15590 -1.60276 92 ft 8 kts 176°
2026-04-28 10:53 47.15532 -1.60323 90 ft 11 kts 234°
2026-04-28 10:53 47.15529 -1.60415 93 ft 8 kts 296°
2026-04-28 10:54 47.15568 -1.60505 92 ft 11 kts 303°
2026-04-28 10:54 47.15579 -1.60603 92 ft 10 kts 228°
2026-04-28 10:54 47.15521 -1.60650 90 ft 13 kts 207°
2026-04-28 10:54 47.15402 -1.60741 91 ft 21 kts 207°
2026-04-28 10:55 47.15280 -1.60832 92 ft 19 kts 206°
2026-04-28 10:55 47.15165 -1.60917 91 ft 17 kts 208°
2026-04-28 10:55 47.15063 -1.60996 90 ft 16 kts 208°
2026-04-28 10:55 47.14967 -1.61071 89 ft 15 kts 207°
2026-04-28 10:56 47.14877 -1.61140 91 ft 17 kts 208°
2026-04-28 10:56 47.14747 -1.61239 91 ft 22 kts 207°
2026-04-28 10:56 47.14620 -1.61336 89 ft 20 kts 207°
2026-04-28 10:56 47.14501 -1.61426 90 ft 18 kts 207°
2026-04-28 10:57 47.14390 -1.61511 90 ft 20 kts 207°
2026-04-28 10:57 47.14265 -1.61606 87 ft 19 kts 207°
2026-04-28 10:57 47.14175 -1.61691 85 ft 14 kts 235°
2026-04-28 10:57 47.14142 -1.61812 86 ft 11 kts 253°
2026-04-28 10:58 47.14157 -1.61904 85 ft 8 kts 299°
2026-04-28 10:58 47.14189 -1.61935 85 ft 5 kts 22°
2026-04-28 10:58 47.14235 -1.61898 84 ft 15 kts 28°
2026-04-28 10:58 47.14548 -1.61660 92 ft 84 kts 27°
2026-04-28 10:59 47.15248 -1.61127 88 ft 141 kts 27°
2026-04-28 10:59 47.16215 -1.60400 392 ft 158 kts 27°
2026-04-28 10:59 47.17233 -1.59824 943 ft 160 kts 359°
2026-04-28 10:59 47.18252 -1.60459 1526 ft 167 kts 313°
2026-04-28 11:00 47.18829 -1.61980 2035 ft 178 kts 295°
2026-04-28 11:00 47.19355 -1.63758 2245 ft 201 kts 295°
2026-04-28 11:00 47.19943 -1.65748 2553 ft 223 kts 295°
2026-04-28 11:00 47.20596 -1.67947 2905 ft 247 kts 295°
2026-04-28 11:01 47.21314 -1.70357 3416 ft 265 kts 295°
2026-04-28 11:01 47.22057 -1.72870 4234 ft 269 kts 294°
2026-04-28 11:01 47.22399 -1.75587 5069 ft 277 kts 265°
2026-04-28 11:01 47.21793 -1.78279 5897 ft 282 kts 244°
2026-04-28 11:02 47.20900 -1.80862 6752 ft 285 kts 243°
2026-04-28 11:02 47.19985 -1.83457 7583 ft 287 kts 243°
2026-04-28 11:02 47.19047 -1.86102 8451 ft 289 kts 243°
2026-04-28 11:02 47.18129 -1.88700 9291 ft 290 kts 243°
2026-04-28 11:03 47.17189 -1.91371 10125 ft 291 kts 243°
2026-04-28 11:03 47.16237 -1.94085 10521 ft 309 kts 243°
2026-04-28 11:03 47.15214 -1.97000 10695 ft 332 kts 242°
2026-04-28 11:03 47.13853 -1.99845 10917 ft 350 kts 226°
2026-04-28 11:04 47.12145 -2.02452 11492 ft 356 kts 227°
2026-04-28 11:04 47.10453 -2.05131 12164 ft 360 kts 227°
2026-04-28 11:04 47.08753 -2.07849 12842 ft 363 kts 227°
2026-04-28 11:04 47.07051 -2.10605 13517 ft 366 kts 227°
2026-04-28 11:05 47.05340 -2.13400 14149 ft 369 kts 228°
2026-04-28 11:05 47.03625 -2.16212 14761 ft 371 kts 228°
2026-04-28 11:05 47.01909 -2.19034 15385 ft 372 kts 228°
2026-04-28 11:05 47.00185 -2.21873 15997 ft 374 kts 228°
2026-04-28 11:06 46.98446 -2.24732 16608 ft 376 kts 228°
2026-04-28 11:06 46.96636 -2.27497 17210 ft 378 kts 221°
2026-04-28 11:06 46.94511 -2.29781 17831 ft 380 kts 211°
2026-04-28 11:06 46.92178 -2.31597 18433 ft 382 kts 208°
2026-04-28 11:07 46.89814 -2.33391 18964 ft 383 kts 208°
2026-04-28 11:07 46.87443 -2.35190 19513 ft 385 kts 208°
2026-04-28 11:07 46.85073 -2.37019 20041 ft 386 kts 209°
2026-04-28 11:07 46.82739 -2.38966 20572 ft 387 kts 211°
2026-04-28 11:08 46.80426 -2.41010 21085 ft 389 kts 212°
2026-04-28 11:08 46.78126 -2.43091 21581 ft 390 kts 212°
2026-04-28 11:08 46.75820 -2.45181 22071 ft 391 kts 212°
2026-04-28 11:08 46.73496 -2.47268 22546 ft 393 kts 212°
2026-04-28 11:09 46.71158 -2.49338 23027 ft 394 kts 212°
2026-04-28 11:09 46.68803 -2.51402 23477 ft 396 kts 212°
2026-04-28 11:09 46.66436 -2.53464 23874 ft 397 kts 212°
2026-04-28 11:09 46.64060 -2.55528 24239 ft 398 kts 212°
2026-04-28 11:10 46.61677 -2.57594 24608 ft 399 kts 212°
2026-04-28 11:10 46.59287 -2.59666 24954 ft 400 kts 212°
2026-04-28 11:10 46.56894 -2.61740 25308 ft 401 kts 212°
2026-04-28 11:10 46.54495 -2.63821 25658 ft 402 kts 212°
2026-04-28 11:11 46.52061 -2.65930 25995 ft 403 kts 212°
2026-04-28 11:11 46.49647 -2.68020 26330 ft 404 kts 212°
2026-04-28 11:11 46.47235 -2.70107 26663 ft 405 kts 212°
2026-04-28 11:11 46.44809 -2.72204 26981 ft 406 kts 212°
2026-04-28 11:12 46.42380 -2.74297 27285 ft 407 kts 212°
2026-04-28 11:12 46.39944 -2.76395 27586 ft 408 kts 212°
2026-04-28 11:12 46.37506 -2.78498 27872 ft 409 kts 212°
2026-04-28 11:12 46.35061 -2.80611 28156 ft 410 kts 212°
2026-04-28 11:13 46.32606 -2.82729 28438 ft 411 kts 212°
2026-04-28 11:13 46.30150 -2.84841 28684 ft 412 kts 212°
2026-04-28 11:13 46.27686 -2.86957 28945 ft 412 kts 212°
2026-04-28 11:13 46.25218 -2.89079 29198 ft 413 kts 212°
2026-04-28 11:14 46.22745 -2.91199 29439 ft 413 kts 212°
2026-04-28 11:14 46.20272 -2.93314 29782 ft 412 kts 212°
2026-04-28 11:14 46.17812 -2.95415 30110 ft 410 kts 212°
2026-04-28 11:14 46.15360 -2.97509 30395 ft 409 kts 213°
2026-04-28 11:15 46.12917 -2.99595 30645 ft 408 kts 213°
2026-04-28 11:15 46.10470 -3.01682 30887 ft 408 kts 213°
2026-04-28 11:15 46.08028 -3.03763 31120 ft 408 kts 213°
2026-04-28 11:15 46.05589 -3.05837 31367 ft 408 kts 213°
2026-04-28 11:16 46.03144 -3.07910 31601 ft 407 kts 213°
2026-04-28 11:16 46.00709 -3.09972 31849 ft 407 kts 213°
2026-04-28 11:16 45.98267 -3.12037 32089 ft 406 kts 213°
2026-04-28 11:16 45.95834 -3.14098 32330 ft 406 kts 213°
2026-04-28 11:17 45.93399 -3.16158 32567 ft 406 kts 213°
2026-04-28 11:17 45.90966 -3.18210 32814 ft 406 kts 213°
2026-04-28 11:17 45.88535 -3.20256 33041 ft 405 kts 213°
2026-04-28 11:17 45.86101 -3.22304 33289 ft 405 kts 213°
2026-04-28 11:18 45.83671 -3.24350 33519 ft 405 kts 213°
2026-04-28 11:18 45.82031 -3.25732 33679 ft 405 kts 213°
2026-04-28 11:18 45.79607 -3.27773 33917 ft 404 kts 213°
2026-04-28 11:18 45.77181 -3.29814 34138 ft 404 kts 213°
2026-04-28 11:19 45.74751 -3.31854 34322 ft 405 kts 213°
2026-04-28 11:19 45.72325 -3.33887 34496 ft 405 kts 213°
2026-04-28 11:19 45.69889 -3.35926 34660 ft 406 kts 213°
2026-04-28 11:19 45.67449 -3.37966 34821 ft 406 kts 213°
2026-04-28 11:20 45.65008 -3.40009 34993 ft 407 kts 213°
2026-04-28 11:20 45.60100 -3.44115 35079 ft 410 kts 213°
2026-04-28 11:21 45.55176 -3.48206 35079 ft 410 kts 213°
2026-04-28 11:21 45.50243 -3.52303 35076 ft 410 kts 213°
2026-04-28 11:22 45.45316 -3.56395 35070 ft 410 kts 213°
2026-04-28 11:22 45.40383 -3.60490 35072 ft 410 kts 213°
2026-04-28 11:23 45.35443 -3.64569 35071 ft 411 kts 213°
2026-04-28 11:23 45.30501 -3.68642 35073 ft 411 kts 213°
2026-04-28 11:24 45.25522 -3.72740 35075 ft 411 kts 213°
2026-04-28 11:24 45.20571 -3.76800 35068 ft 411 kts 213°
2026-04-28 11:25 45.15615 -3.80863 35072 ft 411 kts 213°
2026-04-28 11:25 45.10653 -3.84898 35068 ft 411 kts 213°
2026-04-28 11:26 45.05714 -3.88974 35065 ft 411 kts 214°
2026-04-28 11:26 45.00833 -3.93181 35064 ft 411 kts 214°
2026-04-28 11:27 44.95960 -3.97404 35062 ft 411 kts 214°
2026-04-28 11:27 44.91067 -4.01589 35062 ft 411 kts 214°
2026-04-28 11:28 44.86163 -4.05761 35059 ft 412 kts 214°
2026-04-28 11:28 44.81251 -4.09929 35058 ft 412 kts 214°
2026-04-28 11:29 44.76337 -4.14094 35057 ft 412 kts 214°
2026-04-28 11:29 44.71415 -4.18253 35052 ft 413 kts 213°
2026-04-28 11:30 44.66488 -4.22410 35051 ft 413 kts 213°
2026-04-28 11:30 44.59087 -4.28649 35047 ft 414 kts 213°
2026-04-28 11:31 44.54142 -4.32803 35042 ft 415 kts 213°
2026-04-28 11:31 44.49155 -4.36979 35043 ft 415 kts 213°
2026-04-28 11:32 44.44193 -4.41137 35039 ft 416 kts 213°
2026-04-28 11:32 44.39232 -4.45299 35040 ft 416 kts 213°
2026-04-28 11:33 44.34281 -4.49496 35039 ft 417 kts 214°
2026-04-28 11:33 44.29324 -4.53699 35040 ft 417 kts 213°
2026-04-28 11:34 44.24358 -4.57897 35039 ft 417 kts 213°
2026-04-28 11:34 44.19389 -4.62089 35042 ft 418 kts 213°
2026-04-28 11:35 44.14405 -4.66276 35036 ft 418 kts 213°
2026-04-28 11:35 44.09419 -4.70463 35039 ft 419 kts 213°
2026-04-28 11:36 44.04422 -4.74649 35037 ft 419 kts 213°
2026-04-28 11:36 43.99422 -4.78832 35040 ft 420 kts 213°
2026-04-28 11:37 43.94416 -4.83008 35036 ft 420 kts 213°
2026-04-28 11:37 43.89398 -4.87185 35042 ft 421 kts 213°
2026-04-28 11:38 43.84379 -4.91361 35044 ft 421 kts 213°
2026-04-28 11:38 43.79344 -4.95532 35043 ft 422 kts 213°
2026-04-28 11:39 43.74311 -4.99704 35040 ft 422 kts 213°
2026-04-28 11:39 43.69236 -5.03902 35041 ft 423 kts 213°
2026-04-28 11:40 43.64183 -5.08071 35037 ft 423 kts 213°
2026-04-28 11:40 43.59127 -5.12229 35045 ft 423 kts 213°
2026-04-28 11:41 43.54060 -5.16384 35042 ft 424 kts 213°
2026-04-28 11:41 43.48994 -5.20542 35043 ft 424 kts 212°
2026-04-28 11:42 43.43924 -5.24692 35040 ft 424 kts 212°
2026-04-28 11:42 43.38844 -5.28838 35044 ft 425 kts 212°
2026-04-28 11:43 43.33756 -5.32976 35035 ft 425 kts 212°
2026-04-28 11:43 43.28670 -5.37113 35032 ft 425 kts 212°
2026-04-28 11:44 43.23577 -5.41248 35034 ft 425 kts 212°
2026-04-28 11:44 43.18474 -5.45376 35022 ft 426 kts 212°
2026-04-28 11:45 43.13372 -5.49500 35026 ft 426 kts 212°
2026-04-28 11:45 43.08266 -5.53631 35013 ft 426 kts 212°
2026-04-28 11:46 43.03150 -5.57755 35008 ft 427 kts 212°
2026-04-28 11:46 42.98037 -5.61870 35016 ft 427 kts 212°
2026-04-28 11:47 42.92905 -5.65981 35014 ft 428 kts 212°
2026-04-28 11:47 42.87726 -5.70110 35054 ft 428 kts 211°
2026-04-28 11:48 42.82624 -5.74191 35003 ft 428 kts 211°
2026-04-28 11:48 42.77453 -5.78330 34997 ft 429 kts 211°
2026-04-28 11:49 42.72305 -5.82425 34997 ft 429 kts 211°
2026-04-28 11:49 42.67147 -5.86515 34998 ft 429 kts 211°
2026-04-28 11:50 42.61982 -5.90606 34999 ft 429 kts 211°
2026-04-28 11:50 42.56823 -5.94691 34998 ft 429 kts 211°
2026-04-28 11:51 42.51659 -5.98773 34993 ft 430 kts 211°
2026-04-28 11:51 42.46494 -6.02842 34987 ft 430 kts 211°
2026-04-28 11:52 42.42192 -6.06221 34980 ft 430 kts 211°
2026-04-28 11:52 42.36982 -6.10311 34978 ft 430 kts 211°
2026-04-28 11:53 42.31841 -6.14338 34975 ft 430 kts 211°
2026-04-28 11:53 42.26635 -6.18413 34974 ft 430 kts 211°
2026-04-28 11:54 42.21457 -6.22464 34974 ft 430 kts 211°
2026-04-28 11:54 42.16279 -6.26500 34973 ft 430 kts 211°
2026-04-28 11:55 42.11096 -6.30522 34972 ft 430 kts 211°
2026-04-28 11:55 42.05913 -6.34545 34971 ft 430 kts 211°
2026-04-28 11:56 42.00737 -6.38565 34965 ft 430 kts 211°
2026-04-28 11:56 41.95559 -6.42573 34965 ft 430 kts 211°
2026-04-28 11:57 41.90380 -6.46575 34960 ft 429 kts 211°
2026-04-28 11:57 41.85195 -6.50571 34950 ft 429 kts 211°
2026-04-28 11:58 41.80011 -6.54554 34949 ft 429 kts 211°
2026-04-28 11:58 41.74795 -6.58558 34945 ft 429 kts 211°
2026-04-28 11:59 41.69506 -6.62256 34944 ft 430 kts 201°
2026-04-28 11:59 41.63735 -6.64421 34940 ft 431 kts 196°
2026-04-28 12:00 41.57931 -6.66452 34936 ft 431 kts 196°
2026-04-28 12:00 41.52131 -6.68499 34935 ft 431 kts 196°
2026-04-28 12:01 41.46334 -6.70541 34934 ft 431 kts 196°
2026-04-28 12:01 41.40536 -6.72576 34932 ft 431 kts 196°
2026-04-28 12:02 41.34740 -6.74598 34928 ft 431 kts 196°
2026-04-28 12:02 41.28944 -6.76617 34928 ft 430 kts 196°
2026-04-28 12:03 41.23147 -6.78636 34929 ft 430 kts 196°
2026-04-28 12:03 41.17320 -6.80473 34922 ft 431 kts 193°
2026-04-28 12:04 41.11449 -6.82033 34925 ft 431 kts 192°
2026-04-28 12:04 41.05532 -6.83576 34930 ft 430 kts 193°
2026-04-28 12:05 40.99660 -6.85164 34933 ft 430 kts 193°
2026-04-28 12:05 40.93797 -6.86785 34925 ft 430 kts 193°
2026-04-28 12:06 40.87933 -6.88394 34928 ft 430 kts 193°
2026-04-28 12:06 40.82068 -6.89994 34928 ft 430 kts 193°
2026-04-28 12:07 40.76209 -6.91593 34929 ft 430 kts 193°
2026-04-28 12:07 40.70345 -6.93180 34932 ft 430 kts 193°
2026-04-28 12:08 40.64483 -6.94762 34930 ft 430 kts 193°
2026-04-28 12:08 40.58628 -6.96343 34934 ft 430 kts 193°
2026-04-28 12:09 40.52776 -6.97923 34934 ft 429 kts 193°
2026-04-28 12:09 40.46919 -6.99508 34938 ft 429 kts 193°
2026-04-28 12:10 40.41070 -7.01088 34937 ft 429 kts 193°
2026-04-28 12:10 40.35217 -7.02658 34935 ft 429 kts 193°
2026-04-28 12:11 40.29336 -7.04233 34932 ft 429 kts 193°
2026-04-28 12:11 40.23492 -7.05795 34933 ft 429 kts 193°
2026-04-28 12:12 40.17645 -7.07362 34935 ft 428 kts 193°
2026-04-28 12:12 40.11809 -7.08922 34934 ft 428 kts 193°
2026-04-28 12:13 40.05972 -7.10479 34931 ft 428 kts 193°
2026-04-28 12:13 40.00137 -7.12036 34926 ft 428 kts 193°
2026-04-28 12:14 39.94304 -7.13578 34924 ft 428 kts 192°
2026-04-28 12:14 39.88464 -7.15110 34920 ft 428 kts 193°
2026-04-28 12:15 39.82627 -7.16654 34915 ft 428 kts 192°
2026-04-28 12:15 39.76793 -7.18203 34912 ft 428 kts 192°
2026-04-28 12:16 39.70949 -7.19748 34912 ft 429 kts 192°
2026-04-28 12:16 39.65106 -7.21283 34905 ft 429 kts 192°
2026-04-28 12:17 39.59251 -7.22821 34904 ft 429 kts 192°
2026-04-28 12:17 39.53349 -7.24366 34901 ft 430 kts 192°
2026-04-28 12:18 39.47485 -7.25900 34902 ft 430 kts 192°
2026-04-28 12:18 39.41620 -7.27433 34901 ft 430 kts 192°
2026-04-28 12:19 39.35742 -7.28965 34906 ft 431 kts 192°
2026-04-28 12:19 39.29868 -7.30502 34904 ft 431 kts 192°
2026-04-28 12:20 39.23993 -7.32031 34904 ft 431 kts 192°
2026-04-28 12:20 39.18117 -7.33548 34906 ft 431 kts 192°
2026-04-28 12:21 39.12244 -7.35066 34908 ft 430 kts 192°
2026-04-28 12:21 39.06376 -7.36586 34912 ft 430 kts 192°
2026-04-28 12:22 39.00508 -7.38105 34918 ft 430 kts 192°
2026-04-28 12:22 38.94649 -7.39618 34911 ft 429 kts 192°
2026-04-28 12:23 38.88795 -7.41119 34916 ft 429 kts 192°
2026-04-28 12:23 38.82947 -7.42621 34902 ft 428 kts 192°
2026-04-28 12:24 38.77101 -7.44124 34913 ft 428 kts 192°
2026-04-28 12:24 38.72212 -7.45373 34906 ft 428 kts 192°
2026-04-28 12:25 38.66381 -7.46861 34909 ft 427 kts 192°
2026-04-28 12:25 38.60549 -7.48346 34911 ft 427 kts 192°
2026-04-28 12:26 38.54724 -7.49836 34898 ft 427 kts 192°
2026-04-28 12:26 38.48905 -7.51321 34909 ft 427 kts 192°
2026-04-28 12:27 38.43082 -7.52797 34894 ft 426 kts 192°
2026-04-28 12:27 38.37263 -7.54263 34902 ft 426 kts 192°
2026-04-28 12:28 38.31439 -7.55733 34907 ft 426 kts 192°
2026-04-28 12:28 38.25621 -7.57203 34903 ft 426 kts 192°
2026-04-28 12:29 38.16859 -7.59414 34900 ft 426 kts 192°
2026-04-28 12:30 38.11053 -7.60881 34902 ft 426 kts 192°
2026-04-28 12:30 38.05187 -7.61919 34903 ft 426 kts 187°
2026-04-28 12:31 37.99288 -7.62679 34905 ft 426 kts 187°
2026-04-28 12:31 37.93390 -7.63443 34899 ft 426 kts 187°
2026-04-28 12:32 37.87492 -7.64218 34909 ft 426 kts 187°
2026-04-28 12:32 37.81593 -7.64984 34913 ft 426 kts 187°
2026-04-28 12:33 37.75700 -7.65749 34916 ft 426 kts 187°
2026-04-28 12:33 37.69808 -7.66511 34910 ft 426 kts 187°
2026-04-28 12:34 37.63909 -7.67266 34919 ft 426 kts 187°
2026-04-28 12:34 37.58012 -7.68025 34921 ft 426 kts 187°
2026-04-28 12:35 37.52124 -7.68775 34925 ft 426 kts 187°
2026-04-28 12:35 37.46226 -7.69524 34922 ft 426 kts 187°
2026-04-28 12:36 37.40337 -7.70283 34923 ft 425 kts 187°
2026-04-28 12:36 37.34519 -7.71033 34923 ft 425 kts 187°
2026-04-28 12:37 37.28589 -7.71795 34918 ft 425 kts 187°
2026-04-28 12:37 37.22700 -7.72541 34914 ft 425 kts 187°
2026-04-28 12:38 37.16821 -7.73291 34910 ft 425 kts 187°
2026-04-28 12:38 37.10937 -7.74035 34905 ft 425 kts 187°
2026-04-28 12:39 37.05053 -7.74776 34901 ft 425 kts 187°
2026-04-28 12:39 36.99175 -7.75529 34898 ft 425 kts 187°
2026-04-28 12:40 36.93300 -7.76272 34900 ft 424 kts 187°
2026-04-28 12:40 36.87427 -7.77012 34898 ft 424 kts 187°
2026-04-28 12:41 36.81549 -7.77749 34899 ft 424 kts 187°
2026-04-28 12:41 36.75676 -7.78487 34896 ft 424 kts 187°
2026-04-28 12:42 36.69805 -7.79228 34896 ft 424 kts 187°
2026-04-28 12:42 36.63898 -7.79972 34890 ft 424 kts 187°
2026-04-28 12:43 36.58026 -7.80707 34884 ft 424 kts 187°
2026-04-28 12:43 36.52156 -7.81441 34883 ft 424 kts 187°
2026-04-28 12:44 36.46286 -7.82178 34882 ft 424 kts 186°
2026-04-28 12:44 36.40416 -7.82908 34875 ft 424 kts 186°
2026-04-28 12:45 36.34545 -7.83637 34872 ft 424 kts 186°
2026-04-28 12:45 36.28669 -7.84367 34871 ft 424 kts 186°
2026-04-28 12:46 36.22795 -7.85095 34868 ft 424 kts 186°
2026-04-28 12:46 36.16916 -7.85824 34866 ft 425 kts 186°
2026-04-28 12:47 36.11036 -7.86551 34867 ft 425 kts 186°
2026-04-28 12:47 36.05149 -7.87282 34865 ft 425 kts 186°
2026-04-28 12:48 35.99262 -7.88008 34862 ft 425 kts 186°
2026-04-28 12:48 35.93346 -7.88040 34866 ft 427 kts 176°
2026-04-28 12:49 35.87420 -7.87488 34864 ft 427 kts 177°
2026-04-28 12:49 35.81489 -7.86942 34867 ft 427 kts 177°
2026-04-28 12:50 35.75555 -7.86406 34866 ft 428 kts 177°
2026-04-28 12:50 35.69616 -7.85876 34872 ft 428 kts 177°
2026-04-28 12:51 35.63625 -7.85347 34875 ft 429 kts 177°
2026-04-28 12:51 35.57678 -7.84827 34877 ft 429 kts 177°
2026-04-28 12:52 35.51719 -7.84287 34882 ft 429 kts 177°
2026-04-28 12:52 35.45763 -7.83748 34883 ft 430 kts 177°
2026-04-28 12:53 35.39792 -7.83211 34887 ft 430 kts 177°
2026-04-28 12:53 35.33816 -7.82700 34887 ft 431 kts 177°
2026-04-28 12:54 35.27839 -7.82208 34891 ft 431 kts 177°
2026-04-28 12:54 35.21854 -7.81717 34893 ft 431 kts 177°
2026-04-28 12:55 35.15855 -7.81208 34897 ft 432 kts 177°
2026-04-28 12:55 35.09857 -7.80698 34900 ft 432 kts 177°
2026-04-28 12:56 35.03854 -7.80193 34903 ft 433 kts 177°
2026-04-28 12:56 34.97841 -7.79671 34906 ft 433 kts 177°
2026-04-28 12:57 34.92805 -7.79241 34910 ft 433 kts 177°
2026-04-28 12:57 34.86781 -7.78738 34908 ft 434 kts 177°
2026-04-28 12:58 34.80762 -7.78230 34912 ft 434 kts 177°
2026-04-28 12:58 34.74733 -7.77718 34916 ft 434 kts 177°
2026-04-28 12:59 34.68700 -7.77255 34919 ft 434 kts 178°
2026-04-28 12:59 34.62664 -7.76860 34918 ft 435 kts 178°
2026-04-28 13:00 34.56621 -7.76465 34921 ft 435 kts 178°
2026-04-28 13:00 34.50580 -7.76044 34924 ft 435 kts 178°
2026-04-28 13:01 34.44533 -7.75610 34921 ft 435 kts 178°
2026-04-28 13:01 34.38484 -7.75205 34924 ft 435 kts 178°
2026-04-28 13:02 34.32433 -7.74807 34924 ft 436 kts 178°
2026-04-28 13:02 34.26380 -7.74391 34924 ft 436 kts 178°
2026-04-28 13:03 34.20328 -7.73967 34926 ft 436 kts 178°
2026-04-28 13:03 34.14272 -7.73507 34929 ft 436 kts 177°
2026-04-28 13:04 34.08216 -7.72916 34923 ft 437 kts 176°
2026-04-28 13:04 34.02114 -7.72300 34926 ft 437 kts 177°
2026-04-28 13:05 33.96045 -7.71743 34928 ft 437 kts 177°
2026-04-28 13:05 33.89976 -7.71206 34925 ft 438 kts 177°
2026-04-28 13:06 33.83903 -7.70653 34929 ft 438 kts 177°
2026-04-28 13:06 33.77824 -7.70092 34926 ft 438 kts 177°
2026-04-28 13:07 33.71748 -7.69520 34919 ft 438 kts 177°
2026-04-28 13:07 33.65667 -7.68937 34915 ft 438 kts 177°
2026-04-28 13:08 33.59577 -7.68378 34911 ft 439 kts 178°
2026-04-28 13:08 33.53506 -7.68376 34911 ft 436 kts 191°
2026-04-28 13:09 33.47785 -7.70589 34908 ft 432 kts 209°
2026-04-28 13:09 33.42533 -7.74086 34915 ft 432 kts 210°
2026-04-28 13:10 33.37268 -7.77581 34914 ft 433 kts 210°
2026-04-28 13:10 33.31993 -7.81058 34921 ft 433 kts 210°
2026-04-28 13:11 33.26721 -7.84538 34926 ft 433 kts 210°
2026-04-28 13:11 33.21451 -7.88023 34933 ft 433 kts 210°
2026-04-28 13:12 33.16183 -7.91505 34941 ft 433 kts 211°
2026-04-28 13:12 33.10907 -7.94973 34946 ft 433 kts 211°
2026-04-28 13:13 33.05599 -7.98455 34945 ft 433 kts 211°
2026-04-28 13:13 33.00327 -8.01916 34947 ft 432 kts 211°
2026-04-28 13:14 32.95028 -8.05311 34947 ft 434 kts 205°
2026-04-28 13:14 32.89191 -8.07178 34945 ft 438 kts 190°
2026-04-28 13:14 32.86167 -8.07665 34743 ft 439 kts 190°
2026-04-28 13:15 32.83146 -8.08160 34471 ft 438 kts 190°
2026-04-28 13:15 32.80118 -8.08659 33544 ft 442 kts 190°
2026-04-28 13:15 32.77057 -8.09167 32572 ft 445 kts 190°
2026-04-28 13:15 32.73986 -8.09676 31575 ft 447 kts 189°
2026-04-28 13:16 32.70900 -8.10186 30623 ft 449 kts 189°
2026-04-28 13:16 32.67795 -8.10697 29425 ft 453 kts 189°
2026-04-28 13:16 32.64686 -8.11208 28823 ft 445 kts 189°
2026-04-28 13:16 32.61641 -8.11706 28153 ft 439 kts 189°
2026-04-28 13:17 32.58639 -8.12195 27474 ft 434 kts 189°
2026-04-28 13:17 32.55664 -8.12677 26815 ft 429 kts 189°
2026-04-28 13:17 32.52738 -8.13150 26171 ft 425 kts 189°
2026-04-28 13:17 32.49804 -8.13626 25527 ft 421 kts 189°
2026-04-28 13:18 32.46909 -8.14097 24890 ft 418 kts 189°
2026-04-28 13:18 32.44039 -8.14563 24265 ft 415 kts 189°
2026-04-28 13:18 32.41180 -8.15027 23641 ft 413 kts 189°
2026-04-28 13:18 32.38340 -8.15491 22965 ft 410 kts 189°
2026-04-28 13:19 32.35530 -8.15950 22389 ft 406 kts 189°
2026-04-28 13:19 32.32748 -8.16403 21840 ft 401 kts 189°
2026-04-28 13:19 32.29999 -8.16851 21316 ft 397 kts 189°
2026-04-28 13:19 32.27273 -8.17297 20807 ft 393 kts 189°
2026-04-28 13:20 32.24574 -8.17737 20314 ft 390 kts 189°
2026-04-28 13:20 32.21900 -8.18169 19836 ft 387 kts 189°
2026-04-28 13:20 32.19245 -8.18599 19362 ft 383 kts 189°
2026-04-28 13:20 32.16575 -8.19031 18886 ft 380 kts 189°
2026-04-28 13:21 32.13976 -8.19515 18405 ft 377 kts 194°
2026-04-28 13:21 32.11493 -8.20472 17873 ft 373 kts 205°
2026-04-28 13:21 32.09219 -8.21901 17390 ft 369 kts 211°
2026-04-28 13:21 32.07013 -8.23419 16901 ft 366 kts 211°
2026-04-28 13:22 32.04817 -8.24921 16406 ft 363 kts 210°
2026-04-28 13:22 32.02639 -8.26406 15907 ft 361 kts 210°
2026-04-28 13:22 32.00469 -8.27886 15402 ft 360 kts 210°
2026-04-28 13:22 31.98308 -8.29359 14893 ft 359 kts 210°
2026-04-28 13:23 31.96154 -8.30828 14382 ft 357 kts 210°
2026-04-28 13:23 31.94001 -8.32294 13869 ft 357 kts 210°
2026-04-28 13:23 31.91858 -8.33752 13309 ft 356 kts 210°
2026-04-28 13:23 31.89719 -8.35206 12796 ft 353 kts 210°
2026-04-28 13:24 31.87603 -8.36647 12262 ft 351 kts 210°
2026-04-28 13:24 31.85499 -8.38079 11736 ft 348 kts 210°
2026-04-28 13:24 31.83391 -8.39472 11195 ft 347 kts 205°
2026-04-28 13:25 31.82809 -8.39792 11086 ft 345 kts 206°
2026-04-28 13:25 31.80642 -8.40981 10611 ft 341 kts 204°
2026-04-28 13:25 31.78504 -8.42082 10460 ft 328 kts 202°
2026-04-28 13:25 31.76388 -8.42892 10333 ft 314 kts 186°
2026-04-28 13:26 31.74270 -8.42699 10213 ft 301 kts 162°
2026-04-28 13:26 31.72494 -8.41516 10060 ft 292 kts 139°
2026-04-28 13:26 31.71283 -8.39609 9647 ft 292 kts 114°
2026-04-28 13:26 31.70788 -8.37326 9343 ft 288 kts 96°
2026-04-28 13:27 31.70626 -8.34981 8945 ft 287 kts 95°
2026-04-28 13:27 31.70477 -8.32648 8561 ft 286 kts 95°
2026-04-28 13:27 31.70330 -8.30322 8170 ft 285 kts 95°
2026-04-28 13:27 31.70184 -8.28006 7959 ft 284 kts 95°
2026-04-28 13:28 31.70038 -8.25688 7957 ft 285 kts 95°
2026-04-28 13:28 31.69888 -8.23363 7958 ft 286 kts 95°
2026-04-28 13:28 31.69736 -8.21034 7957 ft 286 kts 95°
2026-04-28 13:28 31.69581 -8.18702 7955 ft 286 kts 95°
2026-04-28 13:29 31.69429 -8.16374 7953 ft 286 kts 95°
2026-04-28 13:29 31.69278 -8.14042 7952 ft 286 kts 95°
2026-04-28 13:29 31.69176 -8.12469 7951 ft 286 kts 95°
2026-04-28 13:29 31.68973 -8.09377 7949 ft 287 kts 95°
2026-04-28 13:30 31.68868 -8.07807 7789 ft 285 kts 95°
2026-04-28 13:30 31.68714 -8.05495 7411 ft 284 kts 95°
2026-04-28 13:30 31.68560 -8.03187 7071 ft 283 kts 95°
2026-04-28 13:30 31.68404 -8.00891 6686 ft 282 kts 94°
2026-04-28 13:31 31.68091 -7.96325 5902 ft 279 kts 94°
2026-04-28 13:31 31.67937 -7.94053 5529 ft 278 kts 94°
2026-04-28 13:31 31.67786 -7.91803 5432 ft 272 kts 94°
2026-04-28 13:32 31.67639 -7.89658 5446 ft 256 kts 95°
2026-04-28 13:32 31.67500 -7.87653 5514 ft 239 kts 94°
2026-04-28 13:32 31.67365 -7.85714 5643 ft 238 kts 95°
2026-04-28 13:32 31.67228 -7.83769 5635 ft 239 kts 97°
2026-04-28 13:33 31.66688 -7.81964 5576 ft 235 kts 126°
2026-04-28 13:33 31.65455 -7.80772 5271 ft 231 kts 160°
2026-04-28 13:33 31.63903 -7.80549 5095 ft 222 kts 187°
2026-04-28 13:33 31.62394 -7.80735 4965 ft 214 kts 187°
2026-04-28 13:34 31.60937 -7.80912 4816 ft 207 kts 189°
2026-04-28 13:34 31.59628 -7.81501 4614 ft 201 kts 224°
2026-04-28 13:34 31.58939 -7.82866 4338 ft 197 kts 263°
2026-04-28 13:34 31.59034 -7.84454 4093 ft 197 kts 279°
2026-04-28 13:35 31.59211 -7.86054 3815 ft 198 kts 276°
2026-04-28 13:35 31.59348 -7.87680 3549 ft 198 kts 276°
2026-04-28 13:35 31.59474 -7.89275 3391 ft 192 kts 276°
2026-04-28 13:35 31.59595 -7.90780 3300 ft 179 kts 276°
2026-04-28 13:36 31.59709 -7.92172 3225 ft 163 kts 276°
2026-04-28 13:36 31.59818 -7.93465 2979 ft 156 kts 276°
2026-04-28 13:36 31.59922 -7.94692 2777 ft 146 kts 276°
2026-04-28 13:36 31.60021 -7.95864 2574 ft 144 kts 276°
2026-04-28 13:37 31.60122 -7.97026 2387 ft 143 kts 275°
2026-04-28 13:37 31.60206 -7.98177 2208 ft 142 kts 276°
2026-04-28 13:37 31.60314 -7.99321 2048 ft 141 kts 275°
2026-04-28 13:37 31.60411 -8.00458 1882 ft 139 kts 274°
2026-04-28 13:38 31.60506 -8.01591 1667 ft 139 kts 275°
2026-04-28 13:38 31.60603 -8.02694 1552 ft 127 kts 277°
2026-04-28 13:38 31.60682 -8.03556 1542 ft 82 kts 276°
2026-04-28 13:38 31.60726 -8.04040 1537 ft 47 kts 276°
2026-04-28 13:39 31.60749 -8.04311 1538 ft 15 kts 276°
2026-04-28 13:39 31.60717 -8.04389 1536 ft 10 kts 192°
2026-04-28 13:39 31.60679 -8.04396 1539 ft 3 kts 188°
2026-04-28 13:39 31.60635 -8.04400 1542 ft 11 kts 185°
2026-04-28 13:40 31.60579 -8.04349 1548 ft 14 kts 97°
2026-04-28 13:40 31.60564 -8.04170 1548 ft 27 kts 96°
2026-04-28 13:40 31.60544 -8.03945 1548 ft 29 kts 95°
2026-04-28 13:40 31.60523 -8.03708 1548 ft 30 kts 96°
2026-04-28 13:41 31.60501 -8.03462 1546 ft 31 kts 96°
2026-04-28 13:41 31.60479 -8.03206 1549 ft 32 kts 96°
2026-04-28 13:41 31.60456 -8.02946 1549 ft 28 kts 95°
2026-04-28 13:41 31.60439 -8.02750 1549 ft 22 kts 96°
2026-04-28 13:42 31.60427 -8.02609 1549 ft 7 kts 97°
2026-04-28 13:42 31.60426 -8.02606 1549 ft 0 kts 97°
2026-04-28 13:42 31.60426 -8.02602 1549 ft 3 kts 97°
2026-04-28 13:43 31.60409 -8.02579 1549 ft 4 kts 174°
2026-04-28 13:43 31.60358 -8.02585 1549 ft 9 kts 186°
2026-04-28 13:43 31.60312 -8.02591 1549 ft 2 kts 186°